Total_Precipitation_Accumulation
0.00 0.00 0.00 0.00 0.00 0.00 0.00 0.00 0.00 0.00 0.00 0.00 0.00 0.00 0.00 0.00 0.00 0.00 0.00 0.00 0.00 0.00 0.00 0.00 0.00 0.00 0.01 0.00 0.00 0.00 0.00 0.00 0.00 0.00 0.00 0.01 0.00 0.00 0.00 0.00 0.00 0.00 0.00 0.00 0.00 0.00 0.00 0.00 0.00 0.05 0.03 0.03 0.02 0.01 0.02 0.01 0.03 0.03 0.02 0.02 0.03 0.02 0.03 0.05 0.06 0.01 0.00 0.00 0.01 0.00 0.01 0.01 0.01 0.00 0.01 0.01 0.00 0.01 0.00 0.00 0.00 0.01 0.00 0.00 0.02
0.00 0.00 0.00 0.00 0.00 0.00 0.00 0.00 0.00 0.00 0.00 0.00 0.00 0.00 0.00 0.01 0.00 0.00 0.00 0.00 0.00 0.00 0.00 0.00 0.00 0.00 0.00 0.00 0.01 0.03 0.00 0.00 0.00 0.01 0.01 0.00 0.00 0.00 0.00 0.00 0.00 0.00 0.00 0.00 0.00 0.00 0.01 0.00 0.00 0.00 0.02 0.03 0.03 0.03 0.03 0.02 0.01 0.01 0.02 0.02 0.01 0.02 0.02 0.04 0.04 0.02 0.00 0.01 0.01 0.01 0.01 0.01 0.01 0.00 0.01 0.02 0.01 0.00 0.01 0.00 0.00 0.00 0.00 0.00 0.01
0.00 0.00 0.00 0.00 0.00 0.00 0.00 0.00 0.01 0.00 0.00 0.00 0.00 0.01 0.01 0.02 0.00 0.00 0.00 0.00 0.01 0.00 0.00 0.00 0.00 0.00 0.00 0.02 0.01 0.00 0.01 0.01 0.00 0.00 0.00 0.00 0.00 0.00 0.00 0.00 0.00 0.00 0.00 0.00 0.00 0.00 0.00 0.00 0.00 0.01 0.01 0.02 0.01 0.01 0.01 0.00 0.01 0.01 0.01 0.01 0.01 0.01 0.02 0.02 0.05 0.05 0.02 0.00 0.00 0.01 0.01 0.02 0.02 0.02 0.01 0.01 0.00 0.01 0.00 0.01 0.01 0.01 0.00 0.01 0.01
0.00 0.00 0.00 0.00 0.00 0.00 0.00 0.00 0.00 0.00 0.00 0.00 0.00 0.02 0.01 0.00 0.00 0.02 0.01 0.00 0.02 0.00 0.00 0.00 0.00 0.00 0.00 0.01 0.00 0.00 0.00 0.00 0.00 0.00 0.00 0.00 0.00 0.00 0.00 0.00 0.00 0.00 0.00 0.00 0.00 0.00 0.00 0.00 0.00 0.00 0.00 0.00 0.01 0.01 0.01 0.00 0.01 0.01 0.01 0.01 0.02 0.00 0.00 0.05 0.02 0.07 0.04 0.06 0.01 0.01 0.01 0.03 0.02 0.01 0.01 0.00 0.00 0.00 0.01 0.01 0.01 0.01 0.02 0.02 0.02
0.00 0.00 0.00 0.00 0.00 0.00 0.00 0.01 0.03 0.04 0.01 0.00 0.01 0.03 0.03 0.00 0.01 0.03 0.01 0.03 0.01 0.01 0.00 0.02 0.01 0.02 0.03 0.01 0.00 0.00 0.00 0.00 0.01 0.00 0.00 0.00 0.00 0.00 0.00 0.00 0.00 0.00 0.00 0.00 0.00 0.00 0.00 0.00 0.00 0.00 0.00 0.01 0.01 0.01 0.00 0.01 0.01 0.02 0.02 0.04 0.04 0.02 0.02 0.02 0.01 0.02 0.07 0.13 0.04 0.02 0.03 0.02 0.02 0.01 0.01 0.02 0.02 0.02 0.01 0.01 0.02 0.02 0.01 0.02 0.01
0.00 0.00 0.00 0.00 0.00 0.00 0.02 0.00 0.13 0.09 0.03 0.03 0.09 0.03 0.01 0.01 0.01 0.03 0.01 0.01 0.00 0.01 0.00 0.00 0.00 0.00 0.00 0.00 0.00 0.02 0.00 0.00 0.00 0.00 0.00 0.00 0.00 0.00 0.00 0.00 0.00 0.00 0.00 0.00 0.00 0.00 0.00 0.00 0.01 0.01 0.01 0.01 0.01 0.00 0.00 0.00 0.00 0.01 0.02 0.04 0.02 0.05 0.06 0.02 0.03 0.07 0.10 0.07 0.09 0.08 0.03 0.03 0.05 0.01 0.01 0.01 0.03 0.02 0.02 0.01 0.01 0.02 0.02 0.02 0.02
0.00 0.00 0.00 0.00 0.00 0.00 0.00 0.16 0.31 0.10 0.06 0.06 0.15 0.15 0.09 0.02 0.02 0.02 0.01 0.02 0.01 0.01 0.00 0.00 0.00 0.00 0.00 0.00 0.01 0.00 0.00 0.00 0.00 0.00 0.00 0.00 0.00 0.00 0.01 0.00 0.00 0.00 0.00 0.00 0.00 0.00 0.01 0.03 0.03 0.02 0.02 0.01 0.01 0.00 0.00 0.00 0.01 0.01 0.02 0.01 0.01 0.02 0.04 0.06 0.04 0.06 0.06 0.06 0.07 0.06 0.03 0.02 0.04 0.05 0.02 0.01 0.02 0.02 0.02 0.03 0.04 0.04 0.02 0.03 0.02
0.00 0.00 0.00 0.00 0.00 0.03 0.01 0.26 0.51 0.24 0.09 0.24 0.15 0.14 0.09 0.03 0.00 0.02 0.02 0.01 0.01 0.01 0.01 0.01 0.01 0.01 0.00 0.00 0.00 0.00 0.00 0.00 0.01 0.01 0.00 0.00 0.00 0.00 0.00 0.00 0.00 0.00 0.01 0.01 0.02 0.02 0.04 0.03 0.02 0.02 0.02 0.02 0.03 0.01 0.00 0.01 0.01 0.01 0.01 0.04 0.03 0.04 0.04 0.04 0.07 0.06 0.05 0.04 0.06 0.07 0.05 0.03 0.02 0.02 0.03 0.03 0.03 0.02 0.03 0.08 0.11 0.04 0.02 0.02 0.02
0.00 0.00 0.00 0.00 0.00 0.01 0.21 0.31 0.42 0.38 0.83 1.10 0.79 0.35 0.06 0.04 0.01 0.01 0.01 0.02 0.04 0.03 0.04 0.03 0.00 0.00 0.02 0.04 0.01 0.01 0.02 0.02 0.01 0.03 0.01 0.00 0.00 0.00 0.00 0.03 0.00 0.01 0.02 0.03 0.03 0.03 0.03 0.01 0.01 0.01 0.00 0.01 0.03 0.01 0.02 0.00 0.03 0.01 0.00 0.01 0.01 0.02 0.05 0.04 0.06 0.06 0.06 0.07 0.06 0.05 0.08 0.03 0.02 0.02 0.03 0.04 0.04 0.07 0.18 0.07 0.06 0.03 0.03 0.04 0.03
0.00 0.00 0.00 0.01 0.03 0.05 0.25 0.58 0.33 0.67 0.74 1.95 1.58 0.80 0.09 0.03 0.02 0.06 0.09 0.08 0.05 0.02 0.01 0.01 0.01 0.01 0.01 0.02 0.02 0.03 0.03 0.02 0.10 0.06 0.01 0.02 0.02 0.02 0.03 0.03 0.04 0.05 0.05 0.05 0.04 0.03 0.03 0.01 0.04 0.03 0.02 0.03 0.03 0.03 0.03 0.01 0.01 0.00 0.00 0.01 0.02 0.02 0.03 0.07 0.07 0.07 0.09 0.09 0.15 0.05 0.07 0.06 0.04 0.04 0.04 0.06 0.07 0.08 0.06 0.05 0.09 0.06 0.04 0.09 0.06
0.00 0.00 0.00 0.02 0.05 0.01 0.19 0.54 0.49 0.66 0.82 2.03 1.38 1.08 0.34 0.12 0.07 0.03 0.03 0.02 0.03 0.02 0.02 0.02 0.04 0.04 0.04 0.05 0.04 0.04 0.02 0.02 0.02 0.02 0.02 0.03 0.06 0.10 0.06 0.05 0.06 0.05 0.04 0.06 0.06 0.09 0.03 0.10 0.17 0.06 0.04 0.05 0.17 0.16 0.07 0.16 0.08 0.09 0.09 0.08 0.08 0.06 0.05 0.04 0.03 0.03 0.08 0.05 0.06 0.06 0.06 0.07 0.02 0.03 0.04 0.03 0.06 0.08 0.11 0.06 0.11 0.17 0.18 0.18 0.28
0.00 0.00 0.00 0.02 0.15 0.26 0.08 0.77 0.62 0.38 1.20 2.82 2.55 0.84 0.24 0.06 0.04 0.05 0.04 0.03 0.08 0.08 0.04 0.05 0.05 0.06 0.06 0.05 0.05 0.12 0.13 0.05 0.04 0.06 0.07 0.12 0.07 0.05 0.07 0.05 0.04 0.03 0.07 0.10 0.12 0.14 0.26 0.08 0.05 0.21 0.06 0.10 0.25 0.42 0.26 0.12 0.11 0.12 0.11 0.09 0.06 0.04 0.03 0.05 0.09 0.12 0.03 0.04 0.05 0.03 0.05 0.08 0.06 0.04 0.05 0.09 0.29 0.59 0.42 0.35 0.46 0.47 0.38 0.34 0.25
0.00 0.00 0.00 0.02 0.23 0.17 0.90 0.92 0.56 0.32 0.72 2.26 1.39 0.73 0.56 0.39 0.22 0.21 0.09 0.10 0.21 0.10 0.08 0.08 0.07 0.10 0.13 0.15 0.18 0.13 0.08 0.11 0.09 0.11 0.10 0.08 0.06 0.07 0.04 0.05 0.06 0.07 0.22 0.31 0.32 0.35 0.30 0.17 0.43 0.24 0.25 0.44 0.56 0.21 0.20 0.23 0.19 0.13 0.14 0.14 0.11 0.10 0.09 0.07 0.06 0.05 0.08 0.08 0.14 0.07 0.05 0.06 0.10 0.12 0.18 0.59 0.91 1.33 1.20 1.38 0.57 0.48 0.44 0.48 0.35
0.21 0.13 0.20 0.32 0.46 0.72 0.76 0.48 0.23 1.21 2.16 1.78 1.11 0.71 0.39 0.20 0.31 0.31 0.30 0.19 0.10 0.20 0.08 0.14 0.16 0.18 0.21 0.16 0.15 0.18 0.19 0.17 0.12 0.08 0.06 0.07 0.08 0.03 0.07 0.05 0.05 0.14 0.14 0.09 0.15 0.12 0.11 0.51 0.53 0.43 0.53 0.38 0.49 0.17 0.20 0.33 0.31 0.41 0.38 0.27 0.20 0.15 0.10 0.07 0.05 0.03 0.11 0.55 0.13 0.09 0.05 0.04 0.10 0.16 0.23 0.47 0.66 1.24 1.85 1.80 0.69 0.26 0.41 0.42 0.23
0.73 0.69 0.59 0.47 0.39 0.29 0.11 0.04 0.70 2.13 1.21 0.99 0.62 0.60 0.77 0.37 0.28 0.34 0.55 0.42 0.19 0.11 0.13 0.22 0.20 0.33 0.27 0.20 0.29 0.37 0.20 0.11 0.12 0.12 0.11 0.12 0.10 0.09 0.11 0.21 0.11 0.07 0.13 0.17 0.09 0.11 0.21 0.27 0.48 0.48 0.38 0.33 0.43 0.27 0.32 0.47 0.43 0.20 0.17 0.11 0.15 0.12 0.14 0.08 0.09 0.14 0.10 0.11 0.18 0.09 0.12 0.06 0.06 0.05 0.17 0.17 0.26 0.58 2.34 1.60 0.66 0.67 0.89 0.57 0.50
0.47 0.45 0.32 0.33 0.18 0.23 0.27 0.55 0.95 1.15 1.18 0.75 0.54 0.42 0.27 0.35 0.47 0.42 0.50 0.46 0.38 0.31 0.44 0.30 0.32 0.31 0.31 0.24 0.20 0.12 0.09 0.09 0.46 0.45 0.08 0.02 0.06 0.25 0.17 0.08 0.11 0.07 0.07 0.11 0.12 0.25 0.28 0.33 0.44 0.40 0.24 0.49 0.26 0.13 0.13 0.14 0.19 0.24 0.09 0.10 0.07 0.08 0.06 0.03 0.02 0.02 0.05 0.05 0.06 0.02 0.01 0.02 0.00 0.05 0.11 0.13 0.49 1.82 3.16 1.68 1.21 1.15 1.79 0.89 0.32
0.05 0.14 0.35 0.28 0.45 0.51 0.70 0.84 0.86 0.85 1.10 0.58 0.44 0.43 0.61 0.57 0.46 0.40 0.39 0.52 0.87 0.61 0.37 0.38 0.36 0.25 0.18 0.13 0.08 0.09 0.10 0.08 0.05 0.11 0.50 0.10 0.04 0.11 0.11 0.08 0.16 0.11 0.09 0.11 0.34 0.26 0.17 0.14 0.15 0.30 0.26 0.19 0.14 0.08 0.08 0.06 0.07 0.11 0.11 0.05 0.03 0.03 0.01 0.04 0.02 0.01 0.02 0.01 0.02 0.00 0.00 0.00 0.00 0.01 0.04 0.05 0.27 1.29 3.57 2.01 1.20 2.26 2.43 1.11 0.15
0.06 0.15 0.42 0.46 0.58 0.74 0.90 0.78 0.69 0.64 0.58 0.48 0.45 0.44 0.62 0.61 0.61 0.47 0.70 1.22 0.63 0.50 0.62 0.33 0.19 0.13 0.22 0.09 0.19 0.06 0.11 0.04 0.02 0.03 0.06 0.12 0.13 0.17 0.14 0.14 0.17 0.22 0.26 0.35 0.35 0.31 0.21 0.18 0.17 0.31 0.32 0.32 0.13 0.08 0.08 0.07 0.03 0.03 0.04 0.10 0.12 0.03 0.02 0.01 0.02 0.02 0.01 0.00 0.00 0.00 0.00 0.00 0.68 0.66 0.44 0.06 0.42 1.27 3.37 1.48 1.40 2.39 3.27 2.46 0.76
0.41 0.46 0.40 0.17 0.72 0.94 0.87 0.76 0.51 0.52 0.71 0.76 0.68 0.69 0.94 0.88 0.69 0.86 0.67 0.47 0.36 0.36 0.28 0.22 0.18 0.28 0.31 0.32 0.12 0.13 0.17 0.07 0.06 0.06 0.06 0.07 0.13 0.22 0.18 0.19 0.21 0.20 0.43 0.37 0.20 0.20 0.46 0.17 0.18 0.25 0.21 0.17 0.14 0.11 0.10 0.08 0.08 0.06 0.03 0.02 0.02 0.02 0.02 0.02 0.01 0.00 0.01 0.02 0.01 0.05 0.14 0.93 1.46 1.45 1.28 0.36 1.55 2.07 2.45 1.87 1.55 2.53 2.98 2.17 1.89
0.39 0.07 0.27 0.95 0.89 1.66 0.98 0.57 0.60 0.51 0.64 0.79 1.12 1.19 1.13 1.13 0.92 0.58 0.28 0.16 0.08 0.07 0.05 0.04 0.15 0.22 0.13 0.19 0.15 0.12 0.12 0.11 0.08 0.08 0.16 0.10 0.12 0.31 0.22 0.28 0.20 0.24 0.37 0.27 0.18 0.30 0.34 0.47 0.14 0.11 0.13 0.11 0.10 0.07 0.05 0.03 0.02 0.01 0.02 0.02 0.04 0.02 0.01 0.01 0.01 0.02 0.01 0.01 0.02 0.17 0.31 0.70 1.07 0.95 0.59 0.60 0.63 0.87 0.76 0.35 0.34 0.81 1.30 1.73 2.01
0.20 0.33 0.27 0.41 0.71 1.82 1.29 0.72 0.69 0.93 0.93 1.05 0.96 0.91 0.93 0.79 0.28 0.12 0.09 0.09 0.11 0.36 0.29 0.10 0.10 0.30 0.37 0.76 0.59 0.35 0.34 0.45 0.39 0.28 0.32 0.32 0.21 0.19 0.23 0.17 0.34 0.34 0.40 0.19 0.22 0.30 0.29 0.31 0.35 0.21 0.08 0.03 0.04 0.03 0.02 0.01 0.00 0.01 0.02 0.02 0.01 0.01 0.04 0.00 0.00 0.01 0.02 0.03 0.03 0.02 0.05 0.21 0.27 0.25 0.35 0.20 0.08 0.09 0.11 0.09 0.09 0.19 0.68 0.79 1.19
0.19 0.06 0.66 0.73 0.96 1.55 1.41 1.61 0.66 0.51 0.25 0.18 0.12 0.09 0.07 0.04 0.06 0.18 0.19 0.10 0.16 0.18 0.24 0.59 0.65 0.72 0.45 0.38 0.28 0.42 0.32 0.14 0.26 0.20 0.21 0.18 0.18 0.14 0.17 0.15 0.10 0.11 0.12 0.16 0.19 0.18 0.31 0.27 0.17 0.08 0.08 0.02 0.02 0.01 0.01 0.01 0.01 0.02 0.02 0.01 0.01 0.01 0.01 0.01 0.02 0.03 0.02 0.02 0.04 0.03 0.03 0.05 0.06 0.22 0.27 0.26 0.08 0.11 0.09 0.32 0.23 0.14 0.12 0.18 0.61
0.04 0.06 0.32 0.59 1.14 1.16 1.08 0.39 0.17 0.12 0.05 0.04 0.03 0.02 0.01 0.02 0.05 0.02 0.04 0.26 0.35 0.25 0.25 0.18 0.23 0.45 0.35 0.12 0.08 0.09 0.23 0.17 0.09 0.21 0.27 0.21 0.16 0.13 0.10 0.09 0.04 0.06 0.11 0.12 0.08 0.11 0.18 0.12 0.05 0.02 0.01 0.01 0.01 0.01 0.01 0.01 0.01 0.03 0.01 0.01 0.01 0.01 0.02 0.03 0.03 0.05 0.02 0.02 0.03 0.05 0.04 0.04 0.10 0.29 0.99 0.66 0.14 0.10 0.10 0.14 0.20 0.19 0.17 0.14 0.41
0.61 0.59 0.26 0.35 0.31 0.80 0.85 0.17 0.04 0.03 0.03 0.04 0.05 0.09 0.19 0.17 0.15 0.39 0.08 0.09 0.06 0.07 0.05 0.06 0.11 0.08 0.18 0.29 0.24 0.17 0.21 0.27 0.10 0.08 0.14 0.12 0.08 0.05 0.04 0.04 0.04 0.12 0.05 0.08 0.10 0.21 0.09 0.06 0.03 0.02 0.01 0.02 0.02 0.02 0.01 0.01 0.01 0.01 0.02 0.01 0.01 0.03 0.08 0.05 0.06 0.08 0.09 0.06 0.08 0.08 0.06 0.09 0.20 0.53 1.14 0.86 0.15 0.13 0.15 0.20 0.25 0.25 0.26 0.32 0.85
0.11 0.02 0.02 0.15 0.20 0.52 0.36 0.34 0.41 0.18 0.27 0.15 0.07 0.05 0.07 0.11 0.04 0.04 0.09 0.22 0.17 0.11 0.09 0.09 0.19 0.21 0.25 0.75 0.49 0.18 0.22 0.14 0.09 0.04 0.03 0.02 0.02 0.06 0.10 0.06 0.02 0.02 0.02 0.05 0.06 0.04 0.03 0.04 0.03 0.02 0.02 0.03 0.03 0.03 0.03 0.02 0.05 0.02 0.02 0.02 0.01 0.31 0.06 0.08 0.16 0.30 0.32 0.13 0.08 0.08 0.08 0.08 0.20 0.55 1.02 0.77 0.21 0.19 0.21 0.19 0.21 0.26 0.35 0.83 1.16
0.23 0.42 0.49 0.36 0.33 0.15 0.17 0.30 0.22 0.07 0.07 0.09 0.05 0.04 0.08 0.05 0.17 0.17 0.45 0.70 0.75 0.93 0.82 0.70 0.64 0.34 0.23 0.27 0.14 0.08 0.06 0.06 0.07 0.08 0.07 0.03 0.03 0.02 0.01 0.01 0.01 0.01 0.01 0.03 0.02 0.02 0.02 0.03 0.03 0.04 0.04 0.02 0.02 0.02 0.03 0.06 0.03 0.03 0.03 0.15 0.90 0.50 0.74 0.50 0.11 0.14 0.10 0.07 0.06 0.05 0.03 0.09 0.10 0.82 1.45 0.89 0.21 0.14 0.25 0.36 0.34 0.48 0.99 1.12 1.23
0.57 0.39 0.12 0.16 0.20 0.23 0.11 0.14 0.09 0.06 0.17 0.28 0.53 0.62 0.84 0.71 0.64 0.76 0.53 0.66 0.51 0.38 0.27 0.24 0.20 0.15 0.09 0.08 0.13 0.04 0.07 0.08 0.06 0.03 0.02 0.03 0.04 0.03 0.06 0.01 0.01 0.02 0.06 0.05 0.06 0.05 0.07 0.07 0.11 0.11 0.13 0.13 0.11 0.10 0.07 0.07 0.09 0.12 0.35 0.19 0.13 0.20 0.09 0.07 0.05 0.06 0.04 0.05 0.05 0.05 0.05 0.12 0.53 0.99 1.43 0.60 0.33 0.40 0.39 0.36 0.34 0.78 1.03 1.20 0.69
0.34 0.37 0.40 0.42 0.14 0.38 0.38 0.31 0.47 0.54 0.77 0.77 0.69 0.50 0.43 0.33 0.36 0.27 0.32 0.28 0.24 0.17 0.09 0.04 0.04 0.04 0.03 0.07 0.06 0.06 0.11 0.07 0.11 0.11 0.07 0.09 0.03 0.02 0.02 0.03 0.05 0.07 0.07 0.06 0.08 0.12 0.19 0.08 0.11 0.12 0.11 0.08 0.08 0.10 0.39 0.35 0.34 0.31 0.22 0.09 0.07 0.07 0.03 0.03 0.08 0.12 0.08 0.07 0.07 0.08 0.18 0.44 1.01 1.33 1.02 0.74 0.49 0.39 0.36 0.43 0.55 0.95 1.09 1.07 0.68
1.06 1.09 1.20 1.38 1.43 1.19 1.27 1.09 0.91 0.49 0.33 0.44 0.39 0.52 0.40 0.34 0.32 0.33 0.10 0.11 0.05 0.09 0.06 0.09 0.09 0.12 0.23 0.35 0.28 0.28 0.10 0.13 0.09 0.02 0.06 0.01 0.03 0.02 0.02 0.07 0.15 0.23 0.24 0.40 0.80 0.45 0.14 0.13 0.11 0.11 0.29 0.84 1.15 0.63 0.34 0.29 0.35 0.27 0.10 0.07 0.04 0.03 0.05 0.05 0.03 0.07 0.07 0.08 0.17 0.16 0.41 1.07 1.20 1.31 1.15 0.61 0.41 0.57 0.46 0.62 0.88 0.88 0.48 0.41 0.48
1.09 1.13 1.12 1.08 1.01 0.94 0.96 0.63 0.51 0.47 0.32 0.24 0.31 0.12 0.06 0.03 0.05 0.05 0.23 0.06 0.16 0.27 0.49 1.07 1.25 1.45 1.51 1.53 1.17 1.08 0.63 0.41 0.13 0.05 0.04 0.02 0.08 0.32 0.44 0.52 0.50 0.57 0.45 0.34 0.25 0.28 0.36 0.47 0.57 0.94 1.61 1.34 0.48 0.50 0.37 0.29 0.32 0.08 0.05 0.06 0.03 0.36 0.13 0.09 0.07 0.05 0.07 0.12 0.23 0.41 0.59 1.12 1.10 0.73 0.68 0.34 0.30 0.23 0.30 0.47 0.59 0.40 0.43 0.61 0.36
1.01 0.78 1.08 0.86 0.67 0.59 0.69 0.75 0.67 0.51 0.43 0.15 0.11 0.23 0.07 0.03 0.58 1.06 1.45 1.10 0.65 0.75 0.95 1.08 0.87 0.53 0.43 0.23 0.14 0.17 0.08 0.18 0.35 0.66 0.71 0.72 0.62 0.55 0.56 0.50 0.35 0.10 0.07 0.23 0.31 0.25 0.56 0.79 1.34 1.33 0.94 0.64 0.47 0.63 0.42 0.12 0.07 0.05 0.13 1.17 1.76 0.69 0.19 0.23 0.21 0.20 0.15 0.14 0.33 1.05 1.30 0.76 0.34 0.22 0.24 0.14 0.21 0.19 0.23 0.31 0.39 0.19 0.19 0.26 0.47
1.88 1.15 1.12 1.14 1.01 0.83 0.55 0.96 0.94 0.68 0.60 0.94 0.48 1.28 0.78 0.62 0.50 0.99 0.53 0.71 0.93 0.80 0.19 0.30 0.29 0.48 0.51 0.69 0.63 0.81 0.98 1.28 1.22 1.26 1.12 0.82 1.72 1.63 1.51 1.07 0.69 0.15 0.16 0.21 0.44 0.70 1.23 1.21 1.12 0.90 0.47 0.35 0.34 0.27 0.14 0.07 0.18 0.31 0.94 1.48 0.95 0.74 0.93 0.78 0.68 0.30 0.16 0.14 1.12 1.00 0.27 0.22 0.28 0.28 0.17 0.08 0.13 0.18 0.25 0.43 0.32 0.21 0.26 0.25 0.34
1.21 1.27 0.76 0.90 1.24 1.33 1.22 1.09 0.91 0.66 0.72 0.44 0.60 0.93 0.94 0.52 0.33 0.26 0.27 0.10 0.30 0.39 0.39 0.21 0.51 0.71 0.30 0.19 0.12 0.26 0.35 0.53 0.24 0.24 0.28 0.13 0.13 0.21 0.89 1.23 1.37 1.40 0.66 0.37 0.66 0.97 1.01 1.08 0.92 0.61 0.25 0.35 0.16 0.23 0.28 0.53 0.81 0.99 0.62 0.93 1.12 1.66 2.20 1.86 0.33 0.11 0.12 0.19 0.57 0.20 0.08 0.17 0.34 0.29 0.17 0.17 0.19 0.22 0.26 0.28 0.31 0.27 0.24 0.35 0.39
1.09 0.96 1.66 1.93 1.45 1.40 1.11 1.03 1.49 1.58 1.40 0.95 0.58 0.42 0.73 0.88 0.70 0.34 0.26 0.17 0.27 0.25 0.43 0.98 0.93 0.69 1.24 0.94 0.90 0.85 0.63 0.68 0.54 0.29 0.08 0.12 0.21 0.28 0.18 0.21 0.39 0.64 1.29 2.28 1.99 1.65 1.49 1.20 0.91 0.49 0.34 0.40 0.32 0.44 0.82 1.27 1.24 1.34 1.11 0.58 0.68 1.49 2.40 0.89 0.52 0.49 0.32 0.41 0.49 0.17 0.14 0.20 0.19 0.14 0.24 0.37 0.47 0.41 0.34 0.30 0.25 0.25 0.28 0.29 0.28
1.34 1.72 1.77 2.23 2.04 1.84 2.37 2.59 2.18 2.16 2.21 2.18 1.94 1.48 0.93 0.73 0.78 0.79 0.76 0.63 0.54 0.27 0.44 0.36 0.95 0.87 0.58 1.15 1.52 1.36 1.42 1.21 1.05 0.83 0.47 0.20 0.23 0.33 0.56 0.78 0.87 1.87 2.03 1.57 2.11 2.37 2.13 1.85 1.55 1.27 0.58 0.58 0.51 0.69 1.40 1.26 1.52 0.98 0.82 1.26 0.85 1.58 1.69 1.66 0.69 0.52 0.60 0.42 0.36 0.21 0.16 0.31 0.26 0.33 0.34 0.86 0.95 0.80 0.39 0.24 0.21 0.23 0.30 0.42 0.73
1.03 0.83 1.06 1.14 1.42 1.25 1.11 1.32 1.54 2.17 2.65 2.64 2.16 2.04 1.84 1.71 1.10 0.84 1.36 1.73 1.09 0.99 1.04 1.04 0.99 1.17 1.34 0.76 0.46 0.54 0.70 1.02 1.49 1.49 1.36 1.32 1.11 0.87 1.62 1.57 1.58 1.48 1.99 1.50 1.77 1.63 0.66 0.57 0.55 0.96 1.17 1.49 1.80 1.80 1.90 1.52 0.77 1.01 2.37 1.54 1.01 0.61 0.59 0.31 0.45 0.63 0.49 0.24 0.29 0.29 0.33 0.32 0.42 0.47 0.70 0.96 0.97 1.03 0.78 0.67 0.48 0.40 0.66 0.70 0.56
0.33 0.57 1.10 0.93 1.23 1.25 1.26 1.34 1.77 1.95 1.91 1.62 1.68 2.84 3.15 2.49 2.05 1.99 1.89 1.50 2.04 1.82 1.05 1.02 1.08 1.09 0.98 1.31 1.62 1.44 0.98 0.69 0.67 0.86 1.12 1.50 1.80 1.76 2.44 2.35 2.10 2.13 1.99 0.59 0.99 1.18 1.02 0.80 0.79 1.02 1.35 2.21 1.63 1.05 0.84 0.68 1.04 1.32 1.23 1.63 1.22 0.73 0.99 0.84 0.77 0.82 0.73 0.88 1.25 1.43 1.51 1.24 1.13 1.03 0.92 0.89 0.89 0.77 0.94 1.02 1.12 0.85 0.78 0.71 0.73
0.75 1.14 0.99 0.91 1.44 1.67 2.09 1.96 1.80 2.20 2.19 1.91 1.26 1.07 1.10 2.15 2.62 1.96 1.72 2.00 1.78 1.95 1.79 1.72 1.22 1.43 1.75 1.44 0.79 1.08 1.71 1.29 1.34 1.26 1.85 2.61 2.56 1.80 1.72 2.31 2.17 2.49 2.45 0.98 1.49 1.41 1.22 1.23 0.93 1.07 1.89 1.93 1.32 1.28 1.75 2.07 2.08 2.28 2.60 1.60 1.65 0.93 0.97 0.97 0.95 1.25 1.55 1.63 1.21 1.24 1.24 1.14 1.12 0.94 0.82 0.70 0.69 1.00 0.77 0.65 0.67 0.66 0.71 0.64 0.78
0.24 0.66 1.59 1.33 1.00 1.33 1.56 1.39 1.56 1.48 1.35 1.39 1.21 1.06 0.93 1.00 1.12 1.76 2.58 2.43 2.18 2.11 2.23 2.11 1.81 1.67 1.32 1.17 1.70 1.67 1.08 1.45 1.84 1.73 1.46 1.36 1.62 1.73 1.28 1.16 1.19 1.19 1.92 1.61 1.99 1.61 1.45 1.40 1.25 1.33 1.66 2.17 1.73 1.95 2.90 2.52 2.48 2.87 2.86 1.51 1.30 1.24 1.18 1.60 1.49 1.49 1.43 1.04 0.73 0.63 0.62 0.70 0.97 1.08 1.58 1.68 1.53 1.15 0.88 0.72 0.73 0.69 0.68 0.86 0.86
1.53 1.39 1.32 1.11 1.22 1.28 1.00 0.65 0.66 0.87 0.83 0.79 0.63 0.63 0.70 0.73 0.71 0.82 1.11 1.34 1.94 2.78 2.20 2.11 2.65 1.88 1.48 1.36 1.20 1.58 1.78 1.14 0.97 1.35 2.21 2.55 1.39 0.95 1.31 1.08 0.76 0.94 2.61 1.04 1.08 1.17 1.16 0.90 1.02 1.63 1.21 1.09 1.91 1.93 2.55 2.72 2.48 2.08 1.82 1.50 1.59 1.61 2.10 1.92 1.31 1.55 1.66 1.70 1.74 1.44 0.97 0.77 0.67 0.77 0.90 0.92 1.06 1.25 1.53 1.57 1.73 1.68 1.63 1.48 1.24
1.37 1.27 0.91 0.32 0.35 0.34 0.64 0.52 0.51 0.49 0.52 0.60 0.45 0.46 0.47 0.53 0.52 0.59 0.71 0.91 1.17 1.26 1.63 1.91 2.54 2.89 2.62 2.28 2.04 2.65 3.38 4.34 3.38 1.27 1.82 1.87 2.04 2.00 1.48 1.27 1.67 1.57 2.00 2.39 2.04 1.13 1.20 1.25 0.93 0.81 0.91 1.31 1.58 1.64 1.36 1.47 2.55 2.44 1.53 2.13 1.89 1.48 1.26 1.31 1.42 1.36 1.17 1.06 1.12 1.86 1.95 2.19 1.54 1.14 1.02 0.82 0.82 1.01 1.42 1.65 1.57 1.50 1.39 1.48 1.65
1.65 1.05 0.89 1.19 1.34 1.62 2.03 0.89 0.72 0.67 0.76 0.74 0.76 0.80 0.96 0.52 0.95 1.26 1.31 1.30 1.76 2.01 2.47 2.99 3.57 3.92 3.34 2.47 2.00 1.65 1.42 1.51 1.62 1.22 1.12 1.11 1.17 1.34 1.67 1.64 1.29 1.84 2.24 2.57 2.19 1.40 1.20 1.12 1.14 1.28 1.14 1.78 1.75 1.62 1.50 1.52 1.36 1.49 1.61 1.66 1.70 2.42 2.99 2.07 1.26 1.16 1.70 1.89 1.80 1.71 1.54 2.17 2.34 2.06 1.89 1.67 1.53 1.25 1.25 1.21 1.33 1.37 1.40 1.37 1.25
1.59 2.27 2.44 1.84 1.19 1.59 1.74 0.94 0.91 0.73 0.58 0.63 0.88 0.62 1.25 1.28 1.02 1.26 2.83 2.81 3.72 2.80 1.62 1.67 1.58 1.52 1.32 1.24 1.36 1.48 1.37 1.34 1.40 1.31 1.27 1.43 1.52 1.58 1.51 1.25 1.15 1.01 1.12 2.05 3.75 2.34 1.88 2.11 2.70 2.56 2.16 1.96 1.71 1.64 1.83 2.80 2.58 2.69 1.93 1.37 1.20 1.14 1.33 1.83 2.45 2.07 1.52 1.49 1.70 1.63 1.65 1.99 2.03 2.02 2.11 2.17 2.00 1.90 1.66 1.40 1.31 1.19 1.05 0.99 0.96
0.54 0.87 0.30 1.31 1.74 2.18 1.33 0.85 0.64 0.59 0.88 0.91 1.06 1.28 1.19 1.22 1.10 1.06 0.80 0.64 0.67 0.65 0.91 1.00 1.10 1.04 1.31 1.33 0.90 0.84 0.86 0.90 0.73 0.99 1.20 1.09 1.11 1.11 1.28 1.47 1.25 1.29 1.19 1.36 2.02 1.88 1.45 1.33 1.56 1.18 1.37 1.34 1.31 1.36 1.57 2.07 2.29 2.16 2.46 2.55 2.35 1.96 1.69 1.56 1.54 1.84 2.13 2.16 1.93 1.86 1.80 1.65 1.44 1.30 1.18 1.01 1.16 1.34 1.23 1.16 1.04 0.97 0.89 0.87 0.87
1.50 1.31 1.64 1.70 1.27 1.43 2.01 1.79 1.38 1.16 1.10 1.68 1.21 1.32 1.24 1.75 1.93 1.37 1.07 1.12 0.62 0.53 0.29 0.30 0.25 0.25 0.29 0.28 0.36 0.44 0.47 0.50 0.50 0.48 0.50 0.57 0.48 0.57 0.57 0.64 0.79 0.99 1.18 1.47 1.85 2.02 1.57 1.48 1.14 1.18 1.17 1.08 1.00 0.99 0.92 0.94 1.03 1.10 1.29 1.47 1.73 1.47 1.24 1.25 1.30 1.19 1.16 1.12 0.99 0.94 0.79 0.79 0.76 0.77 0.82 0.85 0.82 0.96 1.06 0.95 0.98 0.93 0.88 0.91 0.92
1.31 1.60 1.30 0.92 0.83 1.55 1.87 2.13 2.22 3.15 3.52 3.14 2.56 2.59 2.29 2.41 2.12 1.36 0.52 0.20 0.24 0.18 0.23 0.37 0.45 0.43 0.38 0.34 0.31 0.33 0.36 0.43 0.53 0.66 0.60 0.63 0.49 0.40 0.36 0.46 0.53 0.54 0.76 1.07 1.65 1.94 2.28 1.73 1.14 1.03 1.04 1.01 1.02 1.08 1.00 1.09 1.03 0.98 0.98 0.90 0.92 0.95 0.97 0.91 0.90 1.01 1.21 1.18 1.06 1.05 0.95 1.00 0.99 1.02 1.04 0.99 0.96 0.99 1.01 1.00 0.99 1.01 1.03 0.96 0.87
0.66 0.92 1.34 1.53 1.36 0.97 1.00 0.85 0.75 0.81 0.92 0.72 1.58 2.14 1.69 1.29 1.62 1.02 0.79 0.92 0.82 1.05 1.01 0.82 0.61 0.48 0.45 0.38 0.44 0.64 0.55 0.63 0.74 0.53 0.74 0.83 0.74 0.74 0.97 1.11 1.34 0.68 0.31 0.44 0.44 0.54 1.05 0.71 0.62 0.69 0.75 0.79 0.68 0.64 0.68 0.70 0.77 0.75 0.78 0.86 1.04 1.10 1.20 1.07 1.12 1.02 1.09 0.89 0.80 0.80 0.81 0.82 0.83 0.82 0.78 0.79 0.80 0.77 0.75 0.72 0.71 0.69 0.68 0.69 0.71
1.83 1.75 1.84 2.25 2.22 2.14 1.90 2.26 1.99 1.41 1.24 1.31 1.41 1.22 1.11 1.49 1.87 1.73 1.93 2.10 1.96 2.09 2.32 1.94 1.90 2.32 2.65 1.56 1.13 0.90 0.79 0.44 0.38 0.41 0.39 0.38 0.30 0.48 0.70 0.81 0.75 0.91 0.97 0.92 1.02 0.95 1.03 0.98 1.14 1.11 1.13 1.06 0.59 0.37 0.36 0.38 0.39 0.43 0.45 0.48 0.51 0.53 0.54 0.56 0.61 0.56 0.51 0.49 0.49 0.48 0.51 0.52 0.54 0.53 0.51 0.51 0.52 0.53 0.53 0.52 0.51 0.47 0.45 0.42 0.39
1.70 1.17 1.12 1.37 1.61 1.55 1.25 1.12 0.87 1.64 1.43 1.12 1.38 1.18 1.39 1.26 0.90 0.87 1.63 1.05 1.09 1.22 0.98 0.64 1.02 1.13 0.35 0.44 0.32 0.54 0.61 0.53 0.54 0.35 0.35 0.23 0.24 0.20 0.60 0.45 0.22 0.37 0.33 0.35 0.29 0.31 0.44 0.44 0.44 0.45 0.45 0.54 0.45 0.27 0.20 0.12 0.13 0.14 0.15 0.16 0.17 0.20 0.22 0.26 0.27 0.27 0.25 0.28 0.31 0.30 0.27 0.30 0.30 0.26 0.26 0.25 0.25 0.24 0.23 0.22 0.22 0.22 0.23 0.22 0.21
0.85 1.03 1.05 0.89 0.92 1.17 1.41 1.25 1.10 1.13 1.86 2.03 2.02 2.26 1.98 1.61 1.43 1.31 1.40 1.65 1.30 1.35 0.96 1.27 1.27 1.49 1.16 1.01 0.80 0.74 0.97 0.97 1.18 1.19 0.85 0.55 0.33 0.42 0.29 0.34 0.30 0.19 0.15 0.10 0.09 0.11 0.16 0.26 0.32 0.38 0.36 0.28 0.18 0.06 0.03 0.03 0.03 0.03 0.02 0.03 0.03 0.04 0.05 0.07 0.08 0.10 0.08 0.09 0.12 0.12 0.12 0.11 0.11 0.11 0.10 0.10 0.09 0.08 0.07 0.06 0.05 0.05 0.05 0.05 0.05
0.39 0.42 0.75 1.12 1.18 1.21 0.99 1.54 1.76 1.76 1.44 2.01 1.62 0.81 0.87 1.42 1.75 1.54 1.55 1.12 1.34 1.56 1.32 1.15 0.93 1.03 1.05 1.05 1.35 1.02 0.89 0.93 0.81 0.62 0.72 0.86 0.59 0.50 0.30 0.24 0.16 0.13 0.19 0.21 0.21 0.16 0.12 0.11 0.08 0.05 0.04 0.11 0.13 0.27 0.23 0.30 0.22 0.20 0.22 0.12 0.11 0.07 0.09 0.11 0.12 0.08 0.08 0.11 0.11 0.08 0.06 0.05 0.04 0.04 0.03 0.03 0.03 0.02 0.02 0.01 0.01 0.01 0.00 0.01 0.01